Simultaneous Nadir Overpasses (SNOs) Predictions

Prediction of SNOs between AQUA and GOES-15 Satellite Orbit:

Table of predicted SNOs for the next 14.0 days since TLE Epoch: 5/25/2018
Index Date Time (AQUA) AQUA Lat,Lon GOES-15 Lat,Lon Distance(km) Time Diff (sec)
1 05/25/2018 22:53:47 -0.88,-139.30 -0.03,-135.17 468.94 80
2 05/27/2018 10:20:10 -0.80,-131.14 0.05,-135.10 450.42 80
3 05/27/2018 22:41:35 -0.29,-136.34 -0.03,-135.11 139.34 80
4 05/29/2018 22:29:23 0.31,-133.38 -0.03,-135.05 189.63 80
5 05/30/2018 10:50:38 0.78,-138.53 0.01,-135.01 401.57 80
6 06/01/2018 10:38:26 0.18,-135.57 0.02,-134.93 73.32 80
7 06/03/2018 10:26:15 -0.48,-132.62 0.02,-134.86 254.59 80
8 06/03/2018 22:47:40 -0.60,-137.82 -0.00,-134.86 336.11 80
9 06/05/2018 22:35:28 0.01,-134.86 -0.00,-134.78 9.34 80
10 06/07/2018 22:23:15 0.56,-131.89 -0.01,-134.69 318.11 80
11 06/08/2018 10:44:31 0.48,-137.06 -0.01,-134.65 273.41 80




NCC Satellite Simultaneous Nadir Overpasses (SNOs) Prediction Service
